Location: Golden Pond Observatory
(36.7773°N, 88.0631°W)
Time: 02:10:27
(UTC-06:00)

Hubble Space Telescope - Pass Details

Date: 27 November 2019
Orbit: 536 x 540 km, 28.5° (Epoch: 05 December)

Event Time Altitude Azimuth Distance (km) Brightness Sun altitude
Rises 16:58:36 0° 255° (WSW) 2,667 6.8 -4.7°
Reaches altitude 10° 17:01:12 10° 240° (WSW) 1,777 5.3 -5.2°
Maximum altitude 17:04:27 23° 188° (S) 1,169 2.9 -5.8°
Drops below altitude 10° 17:07:42 10° 136° (SE) 1,776 3.2 -6.4°
Sets 17:10:18 0° 121° (ESE) 2,666 4.0 -6.9°
